Weather in Friedrichshafen

Germany     47°39′10″N   9°28′49″E
temp.,
°C
wind,
m/s
gust,
m/s
humid.,
%
clouds,
%
prec.,
mm/h
press.,
hPa
HPBL,
m
4 march, thu
thu401:00+3s118136 0.0 102722
04:00+3sw117571 0.0 102522
07:00+2ssw117782 0.0 102422
10:00+8sw255786 0.0 1022301
13:00+12wsw365293 0.0 1020999
16:00+9wsw388091 0.3 1018727
19:00+6ssw229396 0.9 101880
22:00+6s0094100 4.9 101951
5 march, fri
fri501:00+4wsw129777 5.1 102022
04:00+4nw269673 0.4 1019259
07:00+4wsw119686 1.7 102061
10:00+4nne3594100 1.2 1021398
13:00+5nne3592100 2.4 1022540
16:00+3nne4796100 0.6 1022512
19:00+1ne4995100 0.7 1025613
22:00−1ne4118491 0.0 1028469
6 march, sat
sat601:00−2ne5118286 0.0 1029536
04:00−2ne511870 0.0 1029454
07:00−2ne5108814 0.0 1030465
10:00+1ene587073 0.0 1029623
13:00+6ene575236 0.0 1028950
16:00+6ne57500 0.0 1027980
19:00+1ne410640 0.0 1028305
22:00−2nne23760 0.0 102964
7 march, sun
sun701:00−2n11820 0.0 102921
04:00−2nnw11860 0.0 102721
07:00−3n01870 0.0 102721
10:00+5sw12580 0.0 1025347
13:00+9wsw35540 0.0 1022879
16:00+10w34542 0.0 10201291
19:00+2e01873 0.0 102122
22:00+1nne118576 0.0 102222
8 march, mon
mon801:000n128184 0.0 102122
04:000nne117498 0.0 102022
07:00−1nne117999 0.0 102021
10:00+5nne1162100 0.0 1020380
13:00+7nne2253100 0.0 10191238
16:00+7nne3357100 0.1 10181146
19:00+1ne377399 0.1 1020146
22:00−1nne236884 0.0 102262